Wind_Speed
39 39 39 39 39 39 39 39 39 39 39 39 39 39 40 40 41 41 41 42 41 41 40 40 40 40 41 40 41 41 41 41 41 41 40 39 40 42 43 43 42 40 38
40 40 40 40 40 40 39 39 39 39 39 39 40 40 41 41 42 43 44 44 45 44 44 43 44 44 43 43 43 43 43 43 43 43 42 40 42 43 44 44 43 42 41
40 40 40 40 40 40 40 39 40 39 39 40 40 41 42 42 43 44 45 46 46 46 46 46 46 46 47 46 46 46 45 44 45 44 42 42 43 44 44 45 45 44 43
41 41 41 41 41 40 40 40 40 40 40 40 41 41 42 42 43 44 45 46 46 47 47 46 47 48 48 49 49 49 49 48 48 46 45 45 44 44 45 45 46 45 45
42 42 42 42 41 41 41 40 40 39 40 40 41 41 41 42 43 44 44 45 45 46 46 47 47 48 50 51 52 52 53 53 52 50 48 49 48 46 45 46 46 46 46
43 43 43 42 42 41 41 40 40 40 40 40 40 40 41 42 42 43 43 43 44 44 45 45 47 48 50 51 53 55 56 55 55 55 53 51 49 48 47 47 47 47 46
44 44 43 43 42 41 41 40 40 40 40 40 40 40 40 41 41 40 40 40 40 41 42 43 46 48 50 52 53 55 56 57 58 58 58 55 51 49 48 47 47 47 48
45 45 44 43 42 41 41 40 40 40 40 40 39 39 39 39 38 38 38 37 37 37 39 41 43 46 48 50 53 55 56 57 59 59 59 58 56 53 50 48 48 48 49
45 45 45 44 42 41 41 41 41 41 40 39 39 38 38 37 36 36 36 35 34 35 37 39 41 44 47 49 52 54 56 58 60 60 60 60 59 56 53 51 49 49 49
45 45 45 44 42 41 41 41 41 40 39 38 38 38 36 34 34 33 32 32 33 34 35 37 39 41 44 47 50 53 55 57 59 61 61 61 60 58 57 53 50 49 47
46 45 45 44 43 42 41 41 41 40 39 38 37 36 34 32 31 30 29 28 28 29 30 32 35 37 41 44 46 49 52 54 57 59 60 60 59 58 57 55 52 50 47
47 46 45 44 43 42 41 41 41 40 38 37 36 35 32 30 27 26 24 23 23 23 24 27 30 34 37 41 44 47 49 51 54 56 58 59 59 58 56 56 53 50 48
47 46 45 44 42 42 41 40 40 39 37 36 35 33 30 27 24 22 19 17 17 17 19 22 26 31 34 37 40 44 46 48 50 51 54 57 58 58 56 55 53 50 46
46 45 44 43 42 41 41 40 40 39 36 34 34 31 28 24 21 19 15 12 11 12 14 18 22 27 32 34 37 40 42 44 47 48 51 54 56 57 56 54 53 53 48
46 45 44 43 41 41 40 40 39 38 36 33 31 30 26 23 20 16 12 9 8 9 10 14 19 24 29 32 34 37 39 42 45 46 48 51 53 55 55 55 53 53 50
45 45 43 42 41 40 39 39 38 37 35 32 30 28 25 21 18 14 10 7 5 5 7 12 17 22 25 28 31 35 37 41 43 45 46 48 50 52 53 53 53 51 49
44 44 43 41 40 39 39 38 37 36 33 31 29 27 24 20 17 13 9 6 2 3 6 10 14 19 23 26 29 32 35 38 41 43 45 46 48 49 51 52 51 50 49
44 43 42 40 38 38 38 37 36 34 32 28 27 25 22 19 16 12 8 5 3 2 6 9 12 15 19 25 28 31 33 36 39 41 42 43 45 48 50 50 49 49 48
43 42 41 39 37 37 37 36 35 33 31 28 26 24 20 18 15 11 8 5 3 3 6 8 10 13 17 22 25 28 31 34 36 37 40 41 43 46 48 49 48 47 47
42 41 39 38 36 35 35 35 33 31 30 27 25 22 19 16 14 10 7 5 3 3 5 8 10 12 16 20 23 26 28 32 33 35 38 40 42 44 47 48 48 47 46
40 39 38 36 35 33 33 32 31 30 28 26 24 21 18 15 12 10 7 4 2 3 5 8 11 12 15 18 21 24 26 29 32 33 36 38 41 44 46 46 47 47 47
38 38 37 35 33 32 31 30 29 28 27 25 23 21 17 15 12 9 6 3 2 3 5 8 10 12 14 17 19 21 24 27 30 32 35 37 40 43 45 46 44 45 46
37 36 35 33 31 30 28 27 26 26 26 25 22 21 18 15 12 8 6 3 2 3 5 7 9 11 13 15 16 18 22 26 28 30 33 35 38 40 43 45 44 45 45
34 34 33 31 29 27 26 25 24 24 24 23 22 21 18 16 12 8 5 3 3 4 6 7 9 11 12 13 15 17 19 22 25 27 30 33 35 38 40 42 44 45 45
33 32 30 29 27 25 23 22 21 22 22 21 21 21 19 16 13 9 6 3 3 4 5 7 9 10 11 12 13 15 17 19 21 23 26 30 33 37 39 40 43 45 45
31 29 28 26 25 23 21 20 19 18 19 19 19 20 19 16 14 11 7 4 2 2 4 6 8 9 9 10 11 13 15 17 20 22 25 28 32 34 36 38 41 43 43
Wind_Direction
321 319 316 314 311 308 305 302 299 296 293 290 287 285 282 280 277 274 271 268 265 262 259 255 251 249 245 241 236 232 229 228 226 221 218 217 215 215 213 214 214 213 212
323 321 318 316 314 311 308 305 302 299 296 292 289 287 284 282 278 275 272 269 266 263 260 256 251 247 244 241 236 232 228 225 223 221 218 217 217 215 212 213 214 213 213
325 324 322 320 317 314 311 308 305 302 298 295 291 288 286 283 280 277 273 270 266 263 260 256 251 247 243 239 235 231 228 224 221 219 217 217 216 215 212 213 214 214 213
328 326 324 322 320 317 314 311 308 305 301 297 294 291 288 284 281 278 274 270 266 262 259 255 250 246 241 237 234 231 228 225 222 219 218 216 214 212 212 212 213 213 214
330 328 326 324 321 319 316 313 311 308 305 301 298 294 290 286 283 280 275 270 265 261 258 254 249 245 241 236 232 230 230 227 223 218 217 216 213 212 211 212 213 213 214
331 330 328 326 323 321 318 316 313 310 307 304 300 297 293 290 287 282 276 270 265 261 257 252 248 244 240 236 232 230 229 227 224 220 217 215 212 212 212 212 213 213 213
333 332 329 327 325 323 321 319 316 314 311 308 304 301 296 292 289 284 278 271 265 261 256 251 247 242 238 235 232 229 226 225 223 221 218 216 213 211 210 211 212 212 213
334 333 331 329 327 325 323 322 320 318 315 312 309 305 300 295 290 286 280 273 266 260 255 251 246 240 236 233 229 226 224 222 221 220 218 216 214 212 211 212 211 212 213
335 334 332 331 329 327 326 325 323 322 319 316 312 308 304 299 293 288 281 274 267 262 256 251 245 239 235 231 227 224 221 220 218 217 216 215 214 214 211 211 211 211 211
335 334 334 332 331 330 329 328 327 325 323 320 317 314 309 303 297 290 283 276 270 264 256 249 244 237 232 229 225 222 220 218 218 216 215 215 214 214 213 211 211 211 211
337 336 335 334 333 332 331 331 330 329 326 324 322 320 316 310 302 295 287 279 272 263 253 246 238 233 228 225 221 218 216 217 217 216 214 214 213 213 213 211 210 211 211
338 337 336 335 334 334 333 333 333 332 330 329 328 327 323 318 310 302 292 282 273 262 250 240 232 226 222 219 217 215 214 214 214 214 213 213 213 212 213 212 211 211 210
338 338 337 336 336 336 336 335 336 335 333 333 333 332 329 326 320 312 300 287 274 258 244 233 226 219 215 213 212 211 211 211 211 210 211 212 212 211 212 212 212 209 209
338 338 338 338 338 338 338 338 338 338 337 336 337 338 336 334 331 324 311 295 276 257 243 230 220 213 209 207 207 206 207 207 207 207 208 209 209 210 210 210 211 212 211
339 338 338 339 339 340 340 340 341 340 340 340 341 342 341 340 337 333 321 303 279 259 236 218 208 204 202 202 202 202 204 204 204 205 205 205 206 207 208 209 210 213 214
339 339 339 339 340 341 342 342 342 342 343 343 344 346 347 347 346 343 335 322 288 239 210 199 197 197 197 199 200 199 200 200 201 202 203 203 203 205 206 207 209 211 213
338 339 339 339 340 342 343 344 344 344 345 346 347 349 351 351 353 355 353 349 329 212 194 189 190 193 195 197 196 196 196 196 198 199 200 200 200 201 202 204 206 209 211
338 338 339 340 340 342 344 346 346 347 348 348 349 352 354 357 358 2 8 17 43 135 171 179 185 189 190 191 193 193 194 195 195 197 199 199 199 199 199 200 202 205 207
336 338 338 339 340 342 344 347 348 350 351 351 351 353 356 0 3 7 16 31 61 127 157 170 179 184 186 188 189 191 194 194 195 196 198 199 199 197 197 198 200 202 203
335 336 338 339 340 341 344 346 349 352 353 354 354 355 357 1 5 12 19 29 65 130 155 169 175 179 183 186 189 190 192 193 194 195 196 197 198 197 196 196 197 200 202
333 335 337 338 339 341 343 346 350 352 354 355 355 357 359 1 3 8 17 27 70 132 155 166 173 178 183 187 190 193 193 194 195 196 196 197 198 197 196 196 197 199 201
330 332 334 337 338 340 342 347 351 354 356 357 359 359 360 2 1 3 6 16 93 136 148 159 168 174 178 182 187 192 194 195 196 197 198 197 197 198 199 197 197 197 198
327 330 332 335 336 339 342 347 351 355 358 0 1 2 4 4 6 9 15 30 107 149 161 166 166 169 174 180 184 189 193 194 196 198 199 199 198 198 199 200 199 198 199
326 328 331 333 335 338 341 346 350 354 359 3 4 5 7 9 11 14 23 52 101 148 166 171 169 168 173 178 183 187 190 192 194 197 198 199 199 199 199 200 200 200 200
322 326 329 331 333 336 340 344 350 354 359 3 7 9 11 15 20 24 32 53 104 132 157 173 180 183 182 184 186 189 190 191 192 194 197 198 198 197 198 200 201 200 201
319 323 327 329 331 334 338 342 348 354 360 6 9 12 15 19 23 26 33 47 88 146 166 174 177 181 183 185 188 191 193 192 193 193 195 196 195 195 197 198 199 199 200
Height
5763 5757 5751 5744 5738 5732 5727 5721 5716 5712 5708 5704 5701 5699 5696 5695 5694 5693 5693 5694 5695 5697 5699 5701 5704 5707 5710 5715 5720 5725 5730 5735 5741 5747 5753 5758 5764 5770 5776 5783 5789 5796 5802
5756 5749 5742 5735 5729 5722 5716 5710 5705 5700 5696 5692 5689 5686 5683 5681 5680 5679 5679 5679 5680 5682 5684 5687 5690 5693 5698 5702 5707 5713 5718 5724 5730 5736 5743 5749 5755 5761 5767 5774 5781 5788 5794
5748 5740 5733 5726 5719 5712 5706 5700 5694 5689 5684 5679 5676 5672 5669 5667 5665 5663 5663 5663 5663 5665 5667 5670 5674 5678 5684 5688 5694 5700 5706 5712 5719 5726 5732 5739 5745 5751 5758 5765 5772 5780 5786
5740 5732 5725 5717 5710 5703 5696 5689 5683 5677 5672 5667 5662 5658 5654 5652 5649 5647 5646 5646 5646 5647 5650 5653 5657 5662 5667 5673 5679 5686 5693 5700 5707 5714 5721 5728 5735 5742 5749 5756 5764 5771 5778
5732 5724 5716 5709 5701 5693 5686 5679 5672 5666 5660 5654 5649 5644 5640 5636 5633 5631 5629 5628 5629 5630 5632 5635 5639 5644 5650 5656 5664 5671 5678 5686 5694 5702 5710 5717 5725 5733 5740 5747 5755 5762 5770
5725 5716 5708 5700 5692 5684 5677 5669 5662 5655 5648 5642 5636 5631 5626 5621 5617 5614 5612 5611 5611 5613 5615 5617 5622 5627 5632 5639 5647 5654 5663 5671 5680 5689 5698 5706 5715 5723 5731 5738 5746 5754 5762
5717 5708 5700 5692 5683 5675 5667 5659 5652 5644 5637 5630 5623 5617 5611 5606 5602 5598 5595 5595 5595 5596 5597 5600 5604 5609 5614 5621 5629 5637 5646 5655 5665 5675 5685 5695 5704 5713 5721 5729 5736 5744 5753
5710 5701 5692 5683 5675 5666 5658 5650 5642 5634 5626 5618 5611 5604 5598 5592 5587 5583 5580 5579 5579 5580 5581 5584 5587 5592 5598 5604 5612 5621 5630 5640 5651 5662 5672 5683 5692 5700 5710 5719 5726 5734 5742
5702 5693 5684 5676 5667 5658 5649 5641 5632 5624 5615 5607 5599 5592 5585 5579 5573 5569 5566 5564 5564 5564 5566 5568 5572 5576 5582 5589 5597 5606 5615 5625 5635 5646 5657 5668 5679 5689 5698 5707 5716 5725 5733
5695 5686 5677 5668 5659 5650 5641 5632 5623 5614 5605 5597 5588 5580 5573 5567 5561 5556 5552 5551 5550 5550 5551 5553 5557 5561 5567 5574 5582 5592 5602 5612 5622 5633 5644 5655 5666 5677 5687 5697 5707 5716 5725
5688 5679 5669 5660 5651 5642 5633 5624 5615 5606 5597 5588 5579 5570 5562 5555 5549 5544 5541 5538 5537 5536 5537 5539 5543 5548 5554 5562 5570 5580 5590 5599 5609 5620 5632 5643 5654 5665 5676 5687 5697 5707 5717
5682 5672 5662 5653 5644 5635 5625 5616 5607 5597 5588 5579 5570 5561 5553 5546 5539 5534 5530 5528 5526 5525 5526 5529 5533 5538 5544 5551 5560 5569 5578 5588 5599 5610 5622 5633 5645 5656 5666 5677 5687 5697 5707
5675 5665 5656 5646 5637 5628 5619 5610 5600 5590 5581 5572 5563 5554 5546 5539 5532 5527 5523 5520 5518 5518 5519 5521 5525 5530 5536 5543 5551 5560 5569 5579 5590 5601 5612 5623 5634 5645 5656 5667 5677 5687 5697
5669 5660 5650 5641 5631 5622 5613 5603 5594 5584 5575 5566 5558 5549 5541 5534 5528 5523 5518 5516 5514 5514 5514 5516 5519 5524 5530 5537 5545 5554 5563 5572 5582 5592 5602 5613 5624 5636 5647 5658 5669 5678 5688
5663 5654 5644 5635 5626 5617 5608 5598 5589 5580 5570 5562 5554 5545 5538 5531 5525 5520 5516 5513 5512 5511 5511 5513 5516 5521 5527 5534 5541 5549 5558 5566 5575 5585 5595 5605 5616 5627 5638 5650 5660 5670 5680
5658 5649 5640 5631 5621 5613 5603 5594 5584 5576 5567 5558 5550 5543 5536 5529 5524 5519 5515 5512 5511 5510 5511 5512 5515 5520 5525 5531 5538 5545 5553 5561 5570 5579 5589 5599 5609 5619 5630 5641 5652 5662 5672
5653 5644 5635 5626 5617 5609 5600 5591 5582 5573 5564 5556 5549 5542 5535 5529 5524 5519 5516 5513 5511 5511 5512 5513 5516 5520 5524 5530 5536 5543 5550 5558 5566 5575 5584 5593 5602 5612 5623 5633 5644 5654 5664
5648 5639 5631 5622 5614 5605 5596 5588 5579 5571 5563 5555 5548 5541 5535 5529 5525 5521 5517 5515 5514 5513 5513 5515 5517 5520 5524 5529 5535 5541 5548 5555 5563 5572 5580 5588 5597 5606 5616 5627 5637 5647 5657
5644 5635 5627 5618 5610 5602 5594 5585 5577 5569 5561 5554 5547 5541 5536 5530 5526 5522 5519 5518 5516 5516 5516 5517 5519 5521 5525 5529 5535 5540 5547 5554 5561 5568 5576 5584 5593 5602 5611 5621 5631 5640 5650
5639 5631 5623 5615 5607 5600 5592 5584 5576 5568 5561 5554 5547 5541 5536 5532 5528 5524 5522 5520 5519 5519 5519 5520 5522 5524 5527 5531 5535 5541 5546 5553 5559 5566 5573 5581 5589 5597 5606 5615 5624 5634 5643
5634 5627 5619 5612 5604 5597 5590 5582 5575 5568 5561 5554 5548 5542 5537 5533 5529 5526 5524 5522 5521 5521 5521 5522 5524 5526 5529 5532 5536 5541 5546 5552 5557 5563 5570 5577 5585 5593 5601 5609 5618 5627 5636
5630 5623 5616 5609 5602 5595 5588 5581 5574 5567 5561 5554 5548 5543 5538 5534 5530 5527 5525 5524 5523 5523 5524 5525 5526 5528 5531 5534 5537 5541 5545 5550 5556 5561 5567 5574 5581 5589 5596 5605 5614 5622 5631
5625 5618 5612 5605 5599 5593 5586 5580 5574 5567 5561 5555 5549 5543 5539 5535 5531 5528 5527 5525 5525 5525 5526 5527 5528 5530 5532 5535 5538 5541 5545 5549 5554 5559 5565 5571 5577 5585 5592 5600 5609 5617 5625
5620 5614 5608 5602 5596 5591 5585 5579 5573 5568 5562 5556 5550 5545 5540 5536 5532 5530 5528 5527 5526 5526 5527 5529 5530 5532 5534 5536 5538 5541 5544 5548 5552 5556 5562 5568 5574 5581 5588 5596 5604 5612 5620
5614 5609 5604 5598 5593 5588 5583 5578 5573 5568 5563 5557 5552 5547 5542 5538 5534 5531 5530 5529 5528 5528 5528 5529 5531 5532 5534 5536 5538 5541 5544 5547 5551 5555 5560 5565 5571 5578 5585 5592 5599 5607 5615
5609 5605 5600 5595 5590 5586 5581 5577 5572 5568 5564 5559 5554 5549 5545 5540 5537 5534 5532 5530 5530 5529 5530 5530 5531 5533 5534 5536 5538 5540 5543 5546 5550 5554 5558 5564 5570 5576 5582 5588 5595 5603 5610